Check out our new BloomSky Weather System.

Active alerts

Houston, TX
  Details for Houston, TX Dense Fog Advisory


Thunder radar  blitzortung!


Rain radar more information rain snow radar


Visit our other weather sites:

Template documentation
and downloads

And another site



Weather Underground History page Text

Daily Summary for February 9, 2017 Units:  Metric    English   Both
« Previous Day
Next Day »
Daily Weekly Monthly Yearly Custom
  High: Low: Average:
Temperature: 22.4 °C 9.3 °C 14.7 °C
Dew Point: 6.3 °C 3.1 °C 4.7 °C
Humidity: 78 % 29 % 53 %
Wind Speed: 12.9 km/h 0 km/h 3.4 km/h
Wind Gust: 22.5 km/h - -
Wind:- - SW
Pressure: 1027 hPa 1018.5 hPa -
Precipitation: 0 mm    
Historical Graphs
 
 
Tabular Data for February 9, 2017
Time Temperature Dew Point Pressure Wind Wind Speed Wind Gust Humidity Rainfall Rate (Hourly)
00:00 15.8 °C 5.7 °C 1018.5 hPa NW 6.4 km/h 20.9 km/h 51 % 0 mm
00:05 15.7 °C 5.6 °C 1018.5 hPa NNW 6.4 km/h 20.9 km/h 51 % 0 mm
00:10 15.6 °C 5.8 °C 1018.8 hPa NW 8 km/h 20.9 km/h 52 % 0 mm
00:15 15.5 °C 5.7 °C 1018.5 hPa NW 4.8 km/h 17.7 km/h 52 % 0 mm
00:20 15.4 °C 5.6 °C 1018.8 hPa NW 4.8 km/h 12.9 km/h 52 % 0 mm
00:25 15.3 °C 5.5 °C 1018.8 hPa NW 4.8 km/h 17.7 km/h 52 % 0 mm
00:30 15.2 °C 5.4 °C 1018.8 hPa NW 8 km/h 17.7 km/h 52 % 0 mm
00:35 15.1 °C 5.3 °C 1018.8 hPa NW 8 km/h 17.7 km/h 52 % 0 mm
00:40 15.1 °C 5.3 °C 1018.8 hPa NNE 8 km/h 16.1 km/h 52 % 0 mm
00:45 14.9 °C 5.4 °C 1018.8 hPa NNW 8 km/h 14.5 km/h 53 % 0 mm
00:50 14.8 °C 5 °C 1019.2 hPa WNW 8 km/h 14.5 km/h 52 % 0 mm
00:55 14.8 °C 5 °C 1019.2 hPa NW 4.8 km/h 14.5 km/h 52 % 0 mm
01:00 14.7 °C 4.9 °C 1019.2 hPa NW 12.9 km/h 22.5 km/h 52 % 0 mm
01:05 14.6 °C 5.1 °C 1019.5 hPa NNW 8 km/h 22.5 km/h 53 % 0 mm
01:10 14.4 °C 4.9 °C 1019.5 hPa NW 6.4 km/h 22.5 km/h 53 % 0 mm
01:15 14.3 °C 4.8 °C 1019.5 hPa North 8 km/h 16.1 km/h 53 % 0 mm
01:20 14.2 °C 4.8 °C 1019.9 hPa NNW 4.8 km/h 16.1 km/h 53 % 0 mm
01:25 14.1 °C 4.7 °C 1019.9 hPa NNW 6.4 km/h 16.1 km/h 53 % 0 mm
01:30 14.1 °C 4.7 °C 1019.9 hPa NNW 11.3 km/h 16.1 km/h 53 % 0 mm
01:34 13.9 °C 4.7 °C 1019.9 hPa NW 12.9 km/h 16.1 km/h 54 % 0 mm
01:39 13.9 °C 4.7 °C 1019.5 hPa NNW 3.2 km/h 19.3 km/h 54 % 0 mm
01:44 13.7 °C 4.6 °C 1019.9 hPa North 9.7 km/h 19.3 km/h 54 % 0 mm
01:49 13.7 °C 4.6 °C 1019.9 hPa NNW 3.2 km/h 19.3 km/h 54 % 0 mm
01:54 13.6 °C 4.5 °C 1019.9 hPa NNW 6.4 km/h 11.3 km/h 54 % 0 mm
01:59 13.6 °C 4.5 °C 1019.9 hPa NW 3.2 km/h 12.9 km/h 54 % 0 mm
02:05 13.5 °C 4.4 °C 1019.9 hPa NE 11.3 km/h 14.5 km/h 54 % 0 mm
02:10 13.4 °C 4.3 °C 1019.5 hPa North 3.2 km/h 14.5 km/h 54 % 0 mm
02:15 13.3 °C 4.4 °C 1019.5 hPa WNW 8 km/h 14.5 km/h 55 % 0 mm
02:20 13.2 °C 4.4 °C 1019.5 hPa WNW 1.6 km/h 11.3 km/h 55 % 0 mm
02:25 13.1 °C 4.3 °C 1019.9 hPa NW 4.8 km/h 9.7 km/h 55 % 0 mm
02:30 13 °C 4.2 °C 1019.9 hPa WNW 9.7 km/h 14.5 km/h 55 % 0 mm
02:35 12.9 °C 4.1 °C 1019.9 hPa NW 4.8 km/h 14.5 km/h 55 % 0 mm
02:40 12.9 °C 4.1 °C 1019.9 hPa NW 4.8 km/h 14.5 km/h 55 % 0 mm
02:45 12.8 °C 4.2 °C 1020.2 hPa NNW 4.8 km/h 12.9 km/h 56 % 0 mm
02:50 12.7 °C 4.1 °C 1019.9 hPa NNW 3.2 km/h 12.9 km/h 56 % 0 mm
02:55 12.7 °C 4.1 °C 1019.9 hPa NW 8 km/h 12.9 km/h 56 % 0 mm
03:00 12.6 °C 4.1 °C 1019.9 hPa NW 3.2 km/h 12.9 km/h 56 % 0 mm
03:05 12.6 °C 4.1 °C 1019.9 hPa NW 3.2 km/h 12.9 km/h 56 % 0 mm
03:10 12.5 °C 4 °C 1020.2 hPa NW 3.2 km/h 12.9 km/h 56 % 0 mm
03:15 12.4 °C 3.9 °C 1020.2 hPa WSW 4.8 km/h 9.7 km/h 56 % 0 mm
03:20 12.4 °C 3.9 °C 1020.2 hPa North 4.8 km/h 11.3 km/h 56 % 0 mm
03:25 12.4 °C 3.9 °C 1020.2 hPa NW 3.2 km/h 14.5 km/h 56 % 0 mm
03:30 12.3 °C 3.8 °C 1020.2 hPa WNW 1.6 km/h 16.1 km/h 56 % 0 mm
03:35 12.3 °C 3.5 °C 1020.2 hPa NE 6.4 km/h 16.1 km/h 55 % 0 mm
03:40 12.3 °C 3.5 °C 1020.2 hPa WNW 4.8 km/h 19.3 km/h 55 % 0 mm
03:45 12.3 °C 3.8 °C 1020.2 hPa NW 9.7 km/h 19.3 km/h 56 % 0 mm
03:51 12.2 °C 3.7 °C 1020.5 hPa NW 6.4 km/h 19.3 km/h 56 % 0 mm
03:56 12.1 °C 3.6 °C 1020.5 hPa WNW 6.4 km/h 19.3 km/h 56 % 0 mm
04:01 12.1 °C 3.6 °C 1020.5 hPa NE 4.8 km/h 14.5 km/h 56 % 0 mm
04:06 12.1 °C 3.6 °C 1020.5 hPa West 3.2 km/h 17.7 km/h 56 % 0 mm
04:11 12.1 °C 3.6 °C 1020.5 hPa NW 1.6 km/h 17.7 km/h 56 % 0 mm
04:16 11.9 °C 3.4 °C 1020.5 hPa North 9.7 km/h 17.7 km/h 56 % 0 mm
04:21 11.9 °C 3.4 °C 1020.2 hPa NNE 6.4 km/h 17.7 km/h 56 % 0 mm
04:26 11.8 °C 3.3 °C 1020.2 hPa NNW 8 km/h 17.7 km/h 56 % 0 mm
04:31 11.8 °C 3.3 °C 1020.5 hPa North 4.8 km/h 17.7 km/h 56 % 0 mm
04:36 11.7 °C 3.5 °C 1020.5 hPa NNW 3.2 km/h 16.1 km/h 57 % 0 mm
04:41 11.7 °C 3.5 °C 1020.5 hPa NW 4.8 km/h 20.9 km/h 57 % 0 mm
04:46 11.6 °C 3.4 °C 1020.5 hPa NNW 9.7 km/h 20.9 km/h 57 % 0 mm
04:51 11.6 °C 3.4 °C 1020.5 hPa WSW 3.2 km/h 22.5 km/h 57 % 0 mm
04:56 11.5 °C 3.3 °C 1020.5 hPa WNW 6.4 km/h 22.5 km/h 57 % 0 mm
05:01 11.4 °C 3.4 °C 1020.5 hPa NNW 4.8 km/h 22.5 km/h 58 % 0 mm
05:06 11.4 °C 3.4 °C 1020.5 hPa NNE 3.2 km/h 16.1 km/h 58 % 0 mm
05:11 11.3 °C 3.3 °C 1020.5 hPa NNE 9.7 km/h 20.9 km/h 58 % 0 mm
05:16 11.3 °C 3.3 °C 1020.9 hPa NNE 4.8 km/h 20.9 km/h 58 % 0 mm
05:21 11.2 °C 3.5 °C 1020.9 hPa NNW 3.2 km/h 20.9 km/h 59 % 0 mm
05:26 11.2 °C 3.5 °C 1020.9 hPa NW 6.4 km/h 14.5 km/h 59 % 0 mm
05:31 11.1 °C 3.4 °C 1020.9 hPa NNE 3.2 km/h 14.5 km/h 59 % 0 mm
05:37 11 °C 3.5 °C 1021.2 hPa North 12.9 km/h 14.5 km/h 60 % 0 mm
05:42 10.9 °C 3.4 °C 1021.2 hPa NNE 1.6 km/h 14.5 km/h 60 % 0 mm
05:47 10.9 °C 3.7 °C 1021.2 hPa North 6.4 km/h 14.5 km/h 61 % 0 mm
05:48 10.9 °C 3.7 °C 1021.2 hPa North 3.2 km/h 14.5 km/h 61 % 0 mm
05:53 10.8 °C 3.6 °C 1021.2 hPa NNE 1.6 km/h 16.1 km/h 61 % 0 mm
05:58 10.7 °C 3.7 °C 1021.6 hPa North 8 km/h 19.3 km/h 62 % 0 mm
06:03 10.7 °C 3.7 °C 1021.6 hPa NNW 1.6 km/h 19.3 km/h 62 % 0 mm
06:08 10.7 °C 3.7 °C 1021.6 hPa North 8 km/h 19.3 km/h 62 % 0 mm
06:13 10.6 °C 3.8 °C 1021.6 hPa East 1.6 km/h 14.5 km/h 63 % 0 mm
06:18 10.5 °C 3.8 °C 1021.6 hPa NE 1.6 km/h 12.9 km/h 63 % 0 mm
06:23 10.4 °C 3.7 °C 1021.9 hPa NW 1.6 km/h 12.9 km/h 63 % 0 mm
06:28 10.3 °C 3.8 °C 1022.2 hPa NNE 1.6 km/h 11.3 km/h 64 % 0 mm
06:33 10.2 °C 3.7 °C 1022.2 hPa NNW 3.2 km/h 8 km/h 64 % 0 mm
06:38 10.2 °C 3.9 °C 1022.6 hPa Calm   8 km/h 65 % 0 mm
06:43 10.1 °C 3.8 °C 1022.9 hPa NW 4.8 km/h 9.7 km/h 65 % 0 mm
06:48 10.1 °C 3.8 °C 1022.9 hPa Calm   9.7 km/h 65 % 0 mm
06:53 10.1 °C 3.8 °C 1022.9 hPa North 3.2 km/h 9.7 km/h 65 % 0 mm
06:58 9.9 °C 3.8 °C 1023.2 hPa NW 1.6 km/h 9.7 km/h 66 % 0 mm
07:03 9.9 °C 3.8 °C 1023.2 hPa North 3.2 km/h 9.7 km/h 66 % 0 mm
07:08 9.9 °C 3.8 °C 1023.2 hPa NNW 3.2 km/h 6.4 km/h 66 % 0 mm
07:13 9.8 °C 3.7 °C 1023.6 hPa NNE 12.9 km/h 12.9 km/h 66 % 0 mm
07:18 9.7 °C 3.7 °C 1023.6 hPa WSW 1.6 km/h 12.9 km/h 66 % 0 mm
07:23 9.7 °C 3.7 °C 1023.9 hPa NW 4.8 km/h 12.9 km/h 66 % 0 mm
07:28 9.7 °C 3.7 °C 1023.9 hPa NW 1.6 km/h 12.9 km/h 66 % 0 mm
07:33 9.7 °C 3.7 °C 1024.3 hPa NW 4.8 km/h 12.9 km/h 66 % 0 mm
07:38 9.7 °C 3.7 °C 1024.3 hPa NNW 9.7 km/h 14.5 km/h 66 % 0 mm
07:43 9.7 °C 3.7 °C 1024.6 hPa NNW 3.2 km/h 14.5 km/h 66 % 0 mm
07:48 9.8 °C 3.7 °C 1024.6 hPa NNW 4.8 km/h 14.5 km/h 66 % 0 mm
07:53 9.8 °C 3.7 °C 1024.9 hPa WNW 4.8 km/h 16.1 km/h 66 % 0 mm
07:58 9.9 °C 3.6 °C 1024.9 hPa North 8 km/h 16.1 km/h 65 % 0 mm
08:03 10.1 °C 3.6 °C 1024.9 hPa NNW 4.8 km/h 16.1 km/h 64 % 0 mm
08:08 10.2 °C 3.7 °C 1024.9 hPa WNW 1.6 km/h 16.1 km/h 64 % 0 mm
08:13 10.4 °C 3.7 °C 1025.3 hPa NNW 4.8 km/h 16.1 km/h 63 % 0 mm
08:18 10.4 °C 3.7 °C 1025.3 hPa NNW 8 km/h 16.1 km/h 63 % 0 mm
08:23 10.4 °C 3.4 °C 1025.3 hPa NW 8 km/h 16.1 km/h 62 % 0 mm
08:28 10.5 °C 3.8 °C 1025.6 hPa WNW 4.8 km/h 16.1 km/h 63 % 0 mm
08:33 10.7 °C 3.7 °C 1025.6 hPa NNW 8 km/h 16.1 km/h 62 % 0 mm
08:38 10.7 °C 3.7 °C 1025.6 hPa NNW 3.2 km/h 16.1 km/h 62 % 0 mm
08:44 10.9 °C 3.9 °C 1026 hPa NNW 1.6 km/h 16.1 km/h 62 % 0 mm
08:49 11.2 °C 4 °C 1026 hPa NE 4.8 km/h 16.1 km/h 61 % 0 mm
08:54 11.4 °C 4.1 °C 1026 hPa NW 3.2 km/h 16.1 km/h 61 % 0 mm
08:59 11.7 °C 4.2 °C 1026 hPa NNW 8 km/h 11.3 km/h 60 % 0 mm
09:04 11.8 °C 4 °C 1026.3 hPa NNW 3.2 km/h 11.3 km/h 59 % 0 mm
09:09 12.1 °C 4.3 °C 1026.3 hPa NW 3.2 km/h 14.5 km/h 59 % 0 mm
09:14 12.3 °C 4.5 °C 1026.3 hPa NNE 6.4 km/h 14.5 km/h 59 % 0 mm
09:19 12.3 °C 4.3 °C 1026.3 hPa WNW 4.8 km/h 14.5 km/h 58 % 0 mm
09:24 12.3 °C 4.3 °C 1026.6 hPa North 4.8 km/h 12.9 km/h 58 % 0 mm
09:29 12.4 °C 4.4 °C 1026.6 hPa NW 9.7 km/h 14.5 km/h 58 % 0 mm
09:34 12.6 °C 4.3 °C 1026.6 hPa NNE 3.2 km/h 14.5 km/h 57 % 0 mm
09:39 12.7 °C 4.4 °C 1026.6 hPa NNW 6.4 km/h 14.5 km/h 57 % 0 mm
09:44 12.7 °C 4.6 °C 1026.6 hPa NE 1.6 km/h 12.9 km/h 58 % 0 mm
09:49 12.9 °C 4.6 °C 1026.6 hPa NW 6.4 km/h 14.5 km/h 57 % 0 mm
09:54 13.2 °C 4.6 °C 1026.6 hPa West 4.8 km/h 14.5 km/h 56 % 0 mm
09:59 13.4 °C 4.5 °C 1026.6 hPa North 6.4 km/h 14.5 km/h 55 % 0 mm
10:04 13.4 °C 4.5 °C 1026.6 hPa NW 1.6 km/h 12.9 km/h 55 % 0 mm
10:09 13.3 °C 4.4 °C 1027 hPa NNW 11.3 km/h 12.9 km/h 55 % 0 mm
10:14 13.5 °C 4.6 °C 1027 hPa ENE 1.6 km/h 12.9 km/h 55 % 0 mm
10:20 13.7 °C 4.6 °C 1027 hPa NE 1.6 km/h 11.3 km/h 54 % 0 mm
10:25 13.9 °C 4.5 °C 1027 hPa NW 8 km/h 11.3 km/h 53 % 0 mm
10:30 14 °C 4.8 °C 1027 hPa NNE 9.7 km/h 12.9 km/h 54 % 0 mm
10:35 14.3 °C 5.1 °C 1027 hPa North 8 km/h 12.9 km/h 54 % 0 mm
10:40 14.5 °C 5 °C 1027 hPa NW 6.4 km/h 12.9 km/h 53 % 0 mm
10:45 14.6 °C 4.9 °C 1027 hPa Calm   11.3 km/h 52 % 0 mm
10:50 14.7 °C 4.7 °C 1027 hPa Calm   11.3 km/h 51 % 0 mm
10:55 14.8 °C 4.5 °C 1027 hPa ENE 6.4 km/h 14.5 km/h 50 % 0 mm
11:00 15 °C 4.9 °C 1027 hPa Calm   14.5 km/h 51 % 0 mm
11:05 15.1 °C 4.8 °C 1027 hPa NNE 1.6 km/h 14.5 km/h 50 % 0 mm
11:10 15 °C 4.7 °C 1026.6 hPa ENE 3.2 km/h 12.9 km/h 50 % 0 mm
11:15 15.3 °C 4.9 °C 1026.6 hPa North 1.6 km/h 12.9 km/h 50 % 0 mm
11:20 15.6 °C 4.6 °C 1026.6 hPa North 3.2 km/h 12.9 km/h 48 % 0 mm
11:25 15.5 °C 4.8 °C 1026.6 hPa NNW 3.2 km/h 16.1 km/h 49 % 0 mm
11:30 15.8 °C 5.1 °C 1027 hPa NNW 4.8 km/h 16.1 km/h 49 % 0 mm
11:35 16.3 °C 5.6 °C 1026.6 hPa NNW 3.2 km/h 16.1 km/h 49 % 0 mm
11:40 16.5 °C 5.5 °C 1026.6 hPa North 4.8 km/h 9.7 km/h 48 % 0 mm
11:45 16.8 °C 5.1 °C 1026.6 hPa ENE 9.7 km/h 9.7 km/h 46 % 0 mm
11:50 16.7 °C 4.7 °C 1026.3 hPa NE 3.2 km/h 11.3 km/h 45 % 0 mm
11:55 16.7 °C 5 °C 1026.3 hPa NNW 3.2 km/h 11.3 km/h 46 % 0 mm
12:01 16.8 °C 4.8 °C 1026.3 hPa NNE 4.8 km/h 11.3 km/h 45 % 0 mm
12:06 16.9 °C 5.2 °C 1026.3 hPa NE 8 km/h 11.3 km/h 46 % 0 mm
12:11 17.1 °C 5.1 °C 1026.3 hPa East 6.4 km/h 11.3 km/h 45 % 0 mm
12:16 17.3 °C 5.3 °C 1026 hPa Calm   11.3 km/h 45 % 0 mm
12:21 17.5 °C 5.1 °C 1026 hPa NW 6.4 km/h 11.3 km/h 44 % 0 mm
12:26 17.8 °C 5.4 °C 1026 hPa NW 3.2 km/h 11.3 km/h 44 % 0 mm
12:31 18 °C 5.6 °C 1026 hPa NNW 8 km/h 12.9 km/h 44 % 0 mm
12:36 18.2 °C 5.7 °C 1026 hPa NNW 1.6 km/h 12.9 km/h 44 % 0 mm
12:41 18.4 °C 5.3 °C 1026 hPa NE 1.6 km/h 12.9 km/h 42 % 0 mm
12:46 18.6 °C 5.4 °C 1026 hPa NNE 8 km/h 16.1 km/h 42 % 0 mm
12:51 18.8 °C 4.9 °C 1025.6 hPa NNW 1.6 km/h 16.1 km/h 40 % 0 mm
12:56 18.8 °C 5.3 °C 1025.6 hPa Calm   16.1 km/h 41 % 0 mm
13:01 19.3 °C 5.4 °C 1025.6 hPa ENE 3.2 km/h 11.3 km/h 40 % 0 mm
13:06 19.6 °C 5.3 °C 1025.3 hPa Calm   11.3 km/h 39 % 0 mm
13:11 19.8 °C 5.4 °C 1024.9 hPa Calm   11.3 km/h 39 % 0 mm
13:16 19.9 °C 5.2 °C 1024.9 hPa ENE 3.2 km/h 14.5 km/h 38 % 0 mm
13:21 20 °C 4.5 °C 1024.9 hPa NNE 6.4 km/h 14.5 km/h 36 % 0 mm
13:26 19.6 °C 4.9 °C 1024.9 hPa NNW 9.7 km/h 14.5 km/h 38 % 0 mm
13:31 19.7 °C 5 °C 1024.6 hPa NE 3.2 km/h 14.5 km/h 38 % 0 mm
13:36 19.9 °C 4.8 °C 1024.6 hPa North 4.8 km/h 14.5 km/h 37 % 0 mm
13:41 19.8 °C 4.7 °C 1024.6 hPa Calm   12.9 km/h 37 % 0 mm
13:46 20.2 °C 5 °C 1024.6 hPa ENE 1.6 km/h 12.9 km/h 37 % 0 mm
13:51 20.1 °C 4.6 °C 1024.6 hPa NNE 3.2 km/h 12.9 km/h 36 % 0 mm
13:56 20.2 °C 4.2 °C 1024.3 hPa Calm   12.9 km/h 35 % 0 mm
14:02 20.4 °C 4.8 °C 1024.3 hPa NNW 4.8 km/h 12.9 km/h 36 % 0 mm
14:07 20.7 °C 4.7 °C 1024.3 hPa ESE 3.2 km/h 12.9 km/h 35 % 0 mm
14:12 20.7 °C 4.3 °C 1024.3 hPa Calm   12.9 km/h 34 % 0 mm
14:17 20.7 °C 3.8 °C 1024.3 hPa SE 1.6 km/h 12.9 km/h 33 % 0 mm
14:22 21 °C 4.5 °C 1024.3 hPa East 3.2 km/h 9.7 km/h 34 % 0 mm
14:27 21 °C 4.5 °C 1024.3 hPa NNE 4.8 km/h 11.3 km/h 34 % 0 mm
14:32 21.1 °C 4.6 °C 1024.3 hPa ENE 4.8 km/h 11.3 km/h 34 % 0 mm
14:37 21.3 °C 4.4 °C 1024.3 hPa North 6.4 km/h 12.9 km/h 33 % 0 mm
14:42 21.2 °C 4.3 °C 1024.3 hPa ENE 4.8 km/h 12.9 km/h 33 % 0 mm
14:47 21.1 °C 4.2 °C 1023.9 hPa Calm   12.9 km/h 33 % 0 mm
14:52 21.3 °C 3.9 °C 1023.9 hPa ENE 4.8 km/h 11.3 km/h 32 % 0 mm
14:57 21.2 °C 4.3 °C 1023.9 hPa East 3.2 km/h 9.7 km/h 33 % 0 mm
15:02 21.2 °C 4.3 °C 1023.9 hPa ESE 6.4 km/h 9.7 km/h 33 % 0 mm
15:07 21.2 °C 3.8 °C 1023.9 hPa SE 8 km/h 9.7 km/h 32 % 0 mm
15:12 21.4 °C 4.5 °C 1023.9 hPa Calm   11.3 km/h 33 % 0 mm
15:17 21.3 °C 4.4 °C 1023.9 hPa ENE 1.6 km/h 12.9 km/h 33 % 0 mm
15:22 21.6 °C 5.1 °C 1023.9 hPa SE 6.4 km/h 12.9 km/h 34 % 0 mm
15:23 21.6 °C 4.6 °C 1023.9 hPa ENE 3.2 km/h 12.9 km/h 33 % 0 mm
15:28 21.8 °C 4.4 °C 1023.9 hPa Calm   12.9 km/h 32 % 0 mm
15:34 21.8 °C 3.5 °C 1023.9 hPa East 8 km/h 8 km/h 30 % 0 mm
15:39 21.8 °C 4.8 °C 1023.9 hPa Calm   12.9 km/h 33 % 0 mm
15:44 22.1 °C 5.1 °C 1023.9 hPa NNE 1.6 km/h 12.9 km/h 33 % 0 mm
15:49 22.1 °C 3.7 °C 1023.9 hPa East 6.4 km/h 12.9 km/h 30 % 0 mm
15:54 21.9 °C 4 °C 1023.9 hPa ENE 1.6 km/h 12.9 km/h 31 % 0 mm
15:59 22.1 °C 3.7 °C 1023.9 hPa Calm   12.9 km/h 30 % 0 mm
16:04 22.4 °C 4.4 °C 1023.9 hPa East 4.8 km/h 12.9 km/h 31 % 0 mm
16:09 22.4 °C 4.9 °C 1023.9 hPa Calm   11.3 km/h 32 % 0 mm
16:14 22.3 °C 4.8 °C 1023.9 hPa East 1.6 km/h 11.3 km/h 32 % 0 mm
16:19 22.1 °C 4.2 °C 1023.9 hPa ESE 6.4 km/h 9.7 km/h 31 % 0 mm
16:24 21.8 °C 4.4 °C 1023.9 hPa Calm   14.5 km/h 32 % 0 mm
16:29 21.9 °C 4 °C 1023.9 hPa ESE 1.6 km/h 14.5 km/h 31 % 0 mm
16:34 21.9 °C 3.1 °C 1023.9 hPa ESE 8 km/h 14.5 km/h 29 % 0 mm
16:39 21.7 °C 3.8 °C 1023.9 hPa South 3.2 km/h 14.5 km/h 31 % 0 mm
16:44 21.8 °C 3.5 °C 1023.9 hPa ENE 3.2 km/h 14.5 km/h 30 % 0 mm
16:51 21.7 °C 3.8 °C 1023.9 hPa SSE 11.3 km/h 11.3 km/h 31 % 0 mm
16:56 21.7 °C 3.8 °C 1023.9 hPa ESE 9.7 km/h 11.3 km/h 31 % 0 mm
17:01 21.5 °C 4.1 °C 1023.9 hPa Calm   11.3 km/h 32 % 0 mm
17:06 21.5 °C 4.1 °C 1024.3 hPa ESE 1.6 km/h 11.3 km/h 32 % 0 mm
17:12 21.4 °C 4 °C 1024.3 hPa Calm   11.3 km/h 32 % 0 mm
17:17 21.3 °C 3.9 °C 1023.9 hPa Calm   9.7 km/h 32 % 0 mm
17:22 21.1 °C 4.2 °C 1024.3 hPa ESE 3.2 km/h 9.7 km/h 33 % 0 mm
17:27 20.9 °C 4.4 °C 1024.3 hPa East 3.2 km/h 9.7 km/h 34 % 0 mm
17:32 20.8 °C 4.4 °C 1024.3 hPa ENE 3.2 km/h 8 km/h 34 % 0 mm
17:37 20.8 °C 4.8 °C 1024.3 hPa East 1.6 km/h 8 km/h 35 % 0 mm
17:42 20.7 °C 4.7 °C 1023.9 hPa Calm   6.4 km/h 35 % 0 mm
17:47 20.4 °C 4.4 °C 1024.3 hPa ESE 1.6 km/h 6.4 km/h 35 % 0 mm
17:52 20.2 °C 4.6 °C 1024.3 hPa Calm   6.4 km/h 36 % 0 mm
17:58 19.9 °C 4.8 °C 1024.3 hPa Calm   4.8 km/h 37 % 0 mm
18:03 19.6 °C 4.5 °C 1024.3 hPa Calm   4.8 km/h 37 % 0 mm
18:08 19.3 °C 4.6 °C 1024.3 hPa Calm   3.2 km/h 38 % 0 mm
18:13 19.1 °C 4.8 °C 1024.3 hPa Calm   3.2 km/h 39 % 0 mm
18:18 18.7 °C 4.8 °C 1024.3 hPa Calm   3.2 km/h 40 % 0 mm
18:23 18.4 °C 4.9 °C 1024.3 hPa Calm   1.6 km/h 41 % 0 mm
18:29 18.1 °C 4.6 °C 1024.3 hPa Calm   1.6 km/h 41 % 0 mm
18:34 17.7 °C 5 °C 1024.3 hPa Calm   1.6 km/h 43 % 0 mm
18:39 17.5 °C 5.1 °C 1024.3 hPa Calm   1.6 km/h 44 % 0 mm
18:44 17.4 °C 5 °C 1024.3 hPa Calm   1.6 km/h 44 % 0 mm
18:49 17.2 °C 5.2 °C 1024.3 hPa Calm   1.6 km/h 45 % 0 mm
18:54 16.9 °C 5.5 °C 1024.6 hPa Calm   1.6 km/h 47 % 0 mm
18:59 16.7 °C 5.3 °C 1024.6 hPa Calm   1.6 km/h 47 % 0 mm
19:04 16.4 °C 5.1 °C 1024.6 hPa Calm   1.6 km/h 47 % 0 mm
19:09 16.1 °C 5.4 °C 1024.9 hPa Calm   1.6 km/h 49 % 0 mm
19:14 15.9 °C 5.5 °C 1024.9 hPa Calm   1.6 km/h 50 % 0 mm
19:20 15.6 °C 5.5 °C 1024.9 hPa Calm   1.6 km/h 51 % 0 mm
19:30 15.2 °C 5.7 °C 1024.9 hPa Calm   1.6 km/h 53 % 0 mm
19:35 15.1 °C 5.6 °C 1024.9 hPa Calm   1.6 km/h 53 % 0 mm
19:40 14.9 °C 5.7 °C 1025.3 hPa Calm   1.6 km/h 54 % 0 mm
19:46 14.5 °C 5.8 °C 1025.3 hPa Calm     56 % 0 mm
19:51 14.3 °C 5.9 °C 1025.3 hPa Calm   1.6 km/h 57 % 0 mm
19:56 13.9 °C 5.3 °C 1024.9 hPa Calm   1.6 km/h 56 % 0 mm
20:01 13.8 °C 5.7 °C 1025.3 hPa Calm   1.6 km/h 58 % 0 mm
20:07 13.9 °C 5.8 °C 1024.9 hPa Calm     58 % 0 mm
20:12 13.8 °C 5.7 °C 1025.3 hPa Calm     58 % 0 mm
20:17 13.6 °C 6 °C 1025.3 hPa Calm     60 % 0 mm
20:22 13.4 °C 5.8 °C 1025.3 hPa Calm     60 % 0 mm
20:27 13.2 °C 5.6 °C 1025.3 hPa Calm     60 % 0 mm
20:32 12.8 °C 5.5 °C 1025.3 hPa Calm     61 % 0 mm
20:37 12.6 °C 5.7 °C 1024.9 hPa Calm     63 % 0 mm
20:39 12.5 °C 5.6 °C 1024.9 hPa Calm     63 % 0 mm
20:42 12.4 °C 5.6 °C 1024.9 hPa Calm     63 % 0 mm
20:47 12.4 °C 6 °C 1025.3 hPa Calm     65 % 0 mm
20:52 12.6 °C 6.2 °C 1025.3 hPa Calm   1.6 km/h 65 % 0 mm
20:57 12.5 °C 6.1 °C 1025.3 hPa Calm   1.6 km/h 65 % 0 mm
21:02 12.4 °C 6.2 °C 1025.3 hPa Calm   1.6 km/h 66 % 0 mm
21:07 12.6 °C 6.2 °C 1025.3 hPa Calm   3.2 km/h 65 % 0 mm
21:12 12.6 °C 6.2 °C 1025.3 hPa Calm   3.2 km/h 65 % 0 mm
21:17 12.5 °C 6.3 °C 1025.3 hPa Calm   3.2 km/h 66 % 0 mm
21:22 12.4 °C 6 °C 1025.3 hPa Calm   1.6 km/h 65 % 0 mm
21:27 12.4 °C 6 °C 1025.3 hPa Calm   1.6 km/h 65 % 0 mm
21:32 12.5 °C 6.3 °C 1025.3 hPa Calm   1.6 km/h 66 % 0 mm
21:37 12.5 °C 6.1 °C 1025.3 hPa Calm   1.6 km/h 65 % 0 mm
21:42 12.4 °C 6 °C 1025.3 hPa Calm   1.6 km/h 65 % 0 mm
21:47 12.4 °C 6 °C 1025.3 hPa Calm   1.6 km/h 65 % 0 mm
21:52 12.2 °C 5.6 °C 1025.3 hPa Calm   1.6 km/h 64 % 0 mm
21:57 11.8 °C 5.7 °C 1025.3 hPa Calm   1.6 km/h 66 % 0 mm
22:03 11.6 °C 5.5 °C 1025.6 hPa Calm   1.6 km/h 66 % 0 mm
22:08 11.4 °C 5.7 °C 1025.3 hPa Calm     68 % 0 mm
22:13 11.6 °C 5.9 °C 1025.3 hPa Calm     68 % 0 mm
22:18 11.7 °C 6 °C 1025.6 hPa Calm   1.6 km/h 68 % 0 mm
22:23 11.8 °C 6.1 °C 1025.6 hPa Calm   1.6 km/h 68 % 0 mm
22:28 11.7 °C 6 °C 1025.3 hPa Calm   1.6 km/h 68 % 0 mm
22:33 11.6 °C 5.9 °C 1025.6 hPa Calm     68 % 0 mm
22:38 11.4 °C 5.9 °C 1025.6 hPa Calm     69 % 0 mm
22:43 11.4 °C 6.1 °C 1025.6 hPa Calm   1.6 km/h 70 % 0 mm
22:48 11.4 °C 6.1 °C 1025.6 hPa Calm   1.6 km/h 70 % 0 mm
22:53 11.2 °C 5.9 °C 1025.6 hPa Calm   1.6 km/h 70 % 0 mm
22:58 11.1 °C 6 °C 1025.6 hPa Calm   1.6 km/h 71 % 0 mm
23:03 10.9 °C 5.8 °C 1025.6 hPa Calm   1.6 km/h 71 % 0 mm
23:08 10.9 °C 6.1 °C 1025.6 hPa Calm   1.6 km/h 72 % 0 mm
23:13 10.9 °C 6.1 °C 1025.6 hPa Calm     72 % 0 mm
23:18 10.8 °C 5.8 °C 1025.6 hPa Calm     71 % 0 mm
23:23 10.4 °C 5.4 °C 1025.6 hPa Calm     71 % 0 mm
23:28 10.1 °C 5.1 °C 1025.3 hPa Calm     71 % 0 mm
23:33 9.8 °C 5.2 °C 1025.3 hPa Calm     73 % 0 mm
23:38 9.6 °C 5.2 °C 1025.6 hPa Calm     74 % 0 mm
23:43 9.3 °C 5.1 °C 1025.3 hPa Calm     75 % 0 mm
23:48 9.3 °C 5.5 °C 1025.3 hPa Calm     77 % 0 mm
23:54 9.4 °C 5.8 °C 1025.3 hPa Calm     78 % 0 mm
23:59 9.3 °C 5.7 °C 1025.3 hPa Calm     78 % 0 mm
Spring, Texas: Villages of Bridgestone
Compliments of Weather Underground - 2.75 mb

Script developed by  Jim McMurry - jmcmurry@mwt.net Adapted for the template by  Wim van der Kuil - Leuven-Template.eu

You find our weather info also at:

UK Metoffice

WeatherCloud

Weather Underground

Mid-South Weather Network

AWEKAS

Citizen Weather Observer Program (CWOP)

HAMweather, WeatherForYou, PWS Weather

Equipment we use:

Weather-station
Davis Vantage Vue

Weather-program
Meteohub

Weather-server
Debian 7.9 x86 (Guest)

Provider
DreamHost

Davis Vantage Vue

Meteohub

Debian 7.9 x86 (Guest)

DreamHost